Time,TemperatureF,DewpointF,PressureIn,WindDirection,WindDirectionDegrees,WindSpeedMPH,WindSpeedGustMPH,Humidity,HourlyPrecipIn,Conditions,Clouds,dailyrainin,SolarRadiationWatts/m^2,SoftwareType,DateUTC
2013-01-01 00:01:00,12.0,8.0,30.25,SE,139,1.0,2.0,84,-99.99,,,-99.99,0.000000,,2013-01-01 07:01:00,
2013-01-01 00:11:00,12.0,8.0,30.25,SSE,153,1.0,1.0,84,-99.99,,,-99.99,-0.100000,,2013-01-01 07:11:00,
2013-01-01 00:21:00,12.0,8.0,30.25,East,94,1.0,1.0,84,-99.99,,,-99.99,-0.100000,,2013-01-01 07:21:00,
2013-01-01 00:32:00,12.0,9.0,30.25,NNE,19,1.0,1.0,84,-99.99,,,-99.99,0.000000,,2013-01-01 07:32:00,
2013-01-01 00:42:00,12.0,8.0,30.25,SW,229,2.0,2.0,84,-99.99,,,-99.99,-0.100000,,2013-01-01 07:42:00,
2013-01-01 00:52:00,12.0,8.0,30.26,SW,234,1.0,1.0,84,-99.99,,,-99.99,0.000000,,2013-01-01 07:52:00,
2013-01-01 01:02:00,12.0,9.0,30.25,NE,55,2.0,2.0,84,-99.99,,,-99.99,0.000000,,2013-01-01 08:02:00,
2013-01-01 01:11:00,13.0,9.0,30.26,NE,50,2.0,2.0,84,-99.99,,,-99.99,-0.100000,,2013-01-01 08:11:00,
2013-01-01 01:21:00,13.0,9.0,30.26,NE,40,3.0,3.0,84,-99.99,,,-99.99,-0.100000,,2013-01-01 08:21:00,
2013-01-01 01:32:00,13.0,9.0,30.26,NE,48,3.0,3.0,84,-99.99,,,-99.99,0.000000,,2013-01-01 08:32:00,
2013-01-01 01:42:00,12.0,9.0,30.26,ENE,63,3.0,4.0,84,-99.99,,,-99.99,0.000000,,2013-01-01 08:42:00,
2013-01-01 01:53:00,12.0,8.0,30.26,ENE,61,3.0,3.0,84,-99.99,,,-99.99,-0.100000,,2013-01-01 08:53:00,
2013-01-01 02:02:00,12.0,9.0,30.27,ENE,69,3.0,3.0,84,-99.99,,,-99.99,-0.100000,,2013-01-01 09:02:00,
2013-01-01 02:11:00,12.0,9.0,30.27,ENE,61,2.0,2.0,84,-99.99,,,-99.99,-0.100000,,2013-01-01 09:11:00,
2013-01-01 02:21:00,12.0,9.0,30.27,ENE,69,2.0,2.0,84,-99.99,,,-99.99,0.000000,,2013-01-01 09:21:00,
2013-01-01 02:32:00,13.0,9.0,30.27,NNE,25,2.0,2.0,84,-99.99,,,-99.99,0.000000,,2013-01-01 09:32:00,
2013-01-01 02:42:00,13.0,9.0,30.28,NE,37,1.0,2.0,84,-99.99,,,-99.99,-0.100000,,2013-01-01 09:42:00,
2013-01-01 02:52:00,13.0,9.0,30.28,SSE,151,0.0,1.0,83,-99.99,,,-99.99,0.100000,,2013-01-01 09:52:00,
2013-01-01 03:01:00,13.0,9.0,30.28,ENE,68,1.0,1.0,84,-99.99,,,-99.99,0.000000,,2013-01-01 10:01:00,
2013-01-01 03:11:00,13.0,9.0,30.28,East,99,-999.0,-999.0,84,-99.99,,,-99.99,0.000000,,2013-01-01 10:11:00,
2013-01-01 03:22:00,13.0,9.0,30.28,ESE,108,0.0,1.0,84,-99.99,,,-99.99,-0.100000,,2013-01-01 10:22:00,
2013-01-01 03:32:00,13.0,9.0,30.29,ENE,74,1.0,1.0,84,-99.99,,,-99.99,0.000000,,2013-01-01 10:32:00,
2013-01-01 03:42:00,13.0,9.0,30.29,SE,144,1.0,2.0,84,-99.99,,,-99.99,0.000000,,2013-01-01 10:42:00,
2013-01-01 03:52:00,13.0,9.0,30.29,SSW,206,2.0,2.0,84,-99.99,,,-99.99,-0.100000,,2013-01-01 10:52:00,
2013-01-01 04:01:00,12.0,9.0,30.28,SSW,204,3.0,3.0,84,-99.99,,,-99.99,-0.100000,,2013-01-01 11:01:00,
2013-01-01 04:11:00,13.0,9.0,30.28,SSW,212,3.0,4.0,84,-99.99,,,-99.99,-0.100000,,2013-01-01 11:11:00,
2013-01-01 04:22:00,12.0,9.0,30.28,WNW,287,2.0,3.0,84,-99.99,,,-99.99,-0.100000,,2013-01-01 11:22:00,
2013-01-01 04:32:00,13.0,9.0,30.28,WSW,248,3.0,3.0,83,-99.99,,,-99.99,-0.100000,,2013-01-01 11:32:00,
2013-01-01 04:42:00,13.0,9.0,30.29,WSW,258,2.0,3.0,83,-99.99,,,-99.99,0.000000,,2013-01-01 11:42:00,
2013-01-01 04:52:00,13.0,9.0,30.29,WNW,284,2.0,2.0,83,-99.99,,,-99.99,-0.100000,,2013-01-01 11:52:00,
2013-01-01 05:02:00,13.0,9.0,30.28,WSW,252,2.0,3.0,83,-99.99,,,-99.99,0.000000,,2013-01-01 12:02:00,
2013-01-01 05:11:00,13.0,9.0,30.29,West,280,2.0,3.0,83,-99.99,,,-99.99,0.000000,,2013-01-01 12:11:00,
2013-01-01 05:22:00,12.0,8.0,30.29,NW,314,2.0,2.0,84,-99.99,,,-99.99,0.000000,,2013-01-01 12:22:00,
2013-01-01 05:32:00,12.0,8.0,30.29,North,7,2.0,3.0,84,-99.99,,,-99.99,-0.100000,,2013-01-01 12:32:00,
2013-01-01 05:42:00,11.0,8.0,30.29,NNE,31,0.0,1.0,84,-99.99,,,-99.99,0.000000,,2013-01-01 12:42:00,
2013-01-01 06:02:00,10.0,7.0,30.30,East,80,2.0,3.0,85,-99.99,,,-99.99,-0.100000,,2013-01-01 13:02:00,
2013-01-01 06:12:00,9.0,6.0,30.29,ESE,116,3.0,4.0,84,-99.99,,,-99.99,-0.100000,,2013-01-01 13:12:00,
2013-01-01 06:22:00,10.0,6.0,30.30,East,86,3.0,3.0,85,-99.99,,,-99.99,0.000000,,2013-01-01 13:22:00,
2013-01-01 07:21:00,4.0,0.0,30.30,ESE,116,4.0,4.0,81,-99.99,,,-99.99,-0.100000,,2013-01-01 14:21:00,
2013-01-01 07:32:00,3.0,-1.0,30.30,ESE,120,2.0,2.0,81,-99.99,,,-99.99,0.000000,,2013-01-01 14:32:00,
2013-01-01 07:42:00,4.0,0.0,30.30,ENE,70,1.0,1.0,83,-99.99,,,-99.99,0.000000,,2013-01-01 14:42:00,
2013-01-01 07:52:00,3.0,-1.0,30.30,ESE,104,5.0,6.0,82,-99.99,,,-99.99,-0.100000,,2013-01-01 14:52:00,
2013-01-01 08:02:00,5.0,1.0,30.31,NE,40,2.0,3.0,82,-99.99,,,-99.99,0.400000,,2013-01-01 15:02:00,
2013-01-01 08:12:00,3.0,-2.0,30.32,NNE,19,1.0,2.0,80,-99.99,,,-99.99,1.100000,,2013-01-01 15:12:00,
2013-01-01 08:22:00,4.0,-1.0,30.32,East,100,1.0,2.0,82,-99.99,,,-99.99,2.500000,,2013-01-01 15:22:00,
2013-01-01 08:32:00,4.0,0.0,30.32,East,100,3.0,4.0,82,-99.99,,,-99.99,5.100000,,2013-01-01 15:32:00,
2013-01-01 08:42:00,5.0,0.0,30.33,SE,124,3.0,4.0,82,-99.99,,,-99.99,11.900000,,2013-01-01 15:42:00,
2013-01-01 08:52:00,5.0,1.0,30.33,ESE,106,4.0,5.0,82,-99.99,,,-99.99,20.000000,,2013-01-01 15:52:00,
2013-01-01 09:02:00,6.0,1.0,30.33,ESE,109,3.0,4.0,82,-99.99,,,-99.99,28.700001,,2013-01-01 16:02:00,
2013-01-01 09:11:00,6.0,1.0,30.34,East,95,1.0,2.0,82,-99.99,,,-99.99,39.200001,,2013-01-01 16:11:00,
2013-01-01 09:22:00,6.0,2.0,30.34,East,86,1.0,2.0,82,-99.99,,,-99.99,59.099998,,2013-01-01 16:22:00,
2013-01-01 09:32:00,6.0,2.0,30.35,ESE,113,3.0,4.0,83,-99.99,,,-99.99,55.000000,,2013-01-01 16:32:00,
2013-01-01 09:42:00,6.0,2.0,30.35,ESE,120,3.0,4.0,83,-99.99,,,-99.99,133.899994,,2013-01-01 16:42:00,
2013-01-01 09:52:00,7.0,3.0,30.35,ESE,123,3.0,4.0,83,-99.99,,,-99.99,129.199997,,2013-01-01 16:52:00,
2013-01-01 10:02:00,7.0,2.0,30.36,East,83,2.0,2.0,82,-99.99,,,-99.99,217.399994,,2013-01-01 17:02:00,
2013-01-01 10:11:00,7.0,3.0,30.35,East,99,4.0,6.0,82,-99.99,,,-99.99,256.000000,,2013-01-01 17:11:00,
2013-01-01 10:22:00,8.0,4.0,30.36,East,87,3.0,4.0,83,-99.99,,,-99.99,262.600006,,2013-01-01 17:22:00,
2013-01-01 10:32:00,8.0,4.0,30.36,ENE,77,1.0,2.0,82,-99.99,,,-99.99,280.700012,,2013-01-01 17:32:00,
2013-01-01 10:42:00,10.0,6.0,30.36,SE,134,1.0,2.0,82,-99.99,,,-99.99,291.200012,,2013-01-01 17:42:00,
2013-01-01 10:52:00,11.0,5.0,30.37,East,84,1.0,2.0,78,-99.99,,,-99.99,286.600006,,2013-01-01 17:52:00,
2013-01-01 11:02:00,11.0,5.0,30.38,NNE,20,2.0,3.0,78,-99.99,,,-99.99,292.700012,,2013-01-01 18:02:00,
2013-01-01 11:12:00,10.0,5.0,30.38,North,5,2.0,3.0,79,-99.99,,,-99.99,308.399994,,2013-01-01 18:12:00,
2013-01-01 11:22:00,10.0,5.0,30.38,NNE,27,2.0,2.0,78,-99.99,,,-99.99,318.899994,,2013-01-01 18:22:00,
2013-01-01 11:32:00,11.0,6.0,30.39,NE,39,2.0,2.0,79,-99.99,,,-99.99,321.299988,,2013-01-01 18:32:00,
2013-01-01 11:42:00,12.0,6.0,30.37,ENE,66,1.0,2.0,78,-99.99,,,-99.99,320.399994,,2013-01-01 18:42:00,
2013-01-01 11:52:00,12.0,7.0,30.37,East,91,2.0,3.0,78,-99.99,,,-99.99,327.899994,,2013-01-01 18:52:00,
2013-01-01 12:02:00,13.0,7.0,30.37,North,2,2.0,3.0,76,-99.99,,,-99.99,352.799988,,2013-01-01 19:02:00,
2013-01-01 12:11:00,13.0,7.0,30.36,SW,235,3.0,4.0,74,-99.99,,,-99.99,387.399994,,2013-01-01 19:11:00,
2013-01-01 12:22:00,13.0,7.0,30.36,West,263,3.0,3.0,75,-99.99,,,-99.99,400.700012,,2013-01-01 19:22:00,
2013-01-01 12:32:00,13.0,7.0,30.35,West,275,3.0,4.0,75,-99.99,,,-99.99,404.700012,,2013-01-01 19:32:00,
2013-01-01 12:42:00,14.0,8.0,30.35,West,274,3.0,4.0,75,-99.99,,,-99.99,411.500000,,2013-01-01 19:42:00,
2013-01-01 12:52:00,14.0,7.0,30.34,WSW,247,3.0,4.0,73,-99.99,,,-99.99,431.500000,,2013-01-01 19:52:00,
2013-01-01 13:02:00,14.0,7.0,30.34,West,281,4.0,4.0,74,-99.99,,,-99.99,442.399994,,2013-01-01 20:02:00,
2013-01-01 13:11:00,14.0,7.0,30.34,WNW,282,3.0,5.0,73,-99.99,,,-99.99,446.200012,,2013-01-01 20:11:00,
2013-01-01 13:22:00,15.0,8.0,30.34,West,264,3.0,4.0,73,-99.99,,,-99.99,456.500000,,2013-01-01 20:22:00,
2013-01-01 13:32:00,15.0,8.0,30.33,NW,321,2.0,4.0,72,-99.99,,,-99.99,480.799988,,2013-01-01 20:32:00,
2013-01-01 13:42:00,14.0,8.0,30.33,NNW,331,2.0,3.0,75,-99.99,,,-99.99,484.600006,,2013-01-01 20:42:00,
2013-01-01 13:52:00,15.0,8.0,30.32,WSW,245,4.0,5.0,73,-99.99,,,-99.99,475.500000,,2013-01-01 20:52:00,
2013-01-01 14:02:00,15.0,8.0,30.32,WNW,291,3.0,4.0,73,-99.99,,,-99.99,449.899994,,2013-01-01 21:02:00,
2013-01-01 14:12:00,14.0,8.0,30.33,North,4,4.0,4.0,75,-99.99,,,-99.99,430.700012,,2013-01-01 21:12:00,
2013-01-01 14:22:00,15.0,9.0,30.32,West,270,2.0,4.0,75,-99.99,,,-99.99,410.899994,,2013-01-01 21:22:00,
2013-01-01 14:32:00,15.0,8.0,30.32,NNE,16,2.0,3.0,71,-99.99,,,-99.99,384.299988,,2013-01-01 21:32:00,
2013-01-01 14:42:00,15.0,9.0,30.32,NNW,335,1.0,3.0,74,-99.99,,,-99.99,366.500000,,2013-01-01 21:42:00,
2013-01-01 14:52:00,16.0,8.0,30.32,WSW,240,3.0,4.0,70,-99.99,,,-99.99,344.000000,,2013-01-01 21:52:00,
2013-01-01 15:02:00,16.0,8.0,30.31,SW,228,3.0,3.0,69,-99.99,,,-99.99,318.399994,,2013-01-01 22:02:00,
2013-01-01 15:11:00,15.0,7.0,30.31,SSW,197,3.0,3.0,69,-99.99,,,-99.99,297.200012,,2013-01-01 22:11:00,
2013-01-01 15:22:00,15.0,7.0,30.31,SSW,206,2.0,3.0,69,-99.99,,,-99.99,273.299988,,2013-01-01 22:22:00,
2013-01-01 15:32:00,16.0,8.0,30.31,West,275,2.0,2.0,69,-99.99,,,-99.99,250.100006,,2013-01-01 22:32:00,
2013-01-01 15:42:00,16.0,8.0,30.32,West,267,3.0,4.0,70,-99.99,,,-99.99,224.899994,,2013-01-01 22:42:00,
2013-01-01 15:52:00,16.0,7.0,30.31,SSW,209,2.0,3.0,69,-99.99,,,-99.99,195.699997,,2013-01-01 22:52:00,
2013-01-01 16:02:00,16.0,7.0,30.31,SW,215,3.0,4.0,69,-99.99,,,-99.99,177.699997,,2013-01-01 23:02:00,
2013-01-01 16:12:00,13.0,5.0,30.31,SW,217,7.0,8.0,71,-99.99,,,-99.99,158.899994,,2013-01-01 23:12:00,
2013-01-01 16:22:00,11.0,5.0,30.32,SSW,213,6.0,7.0,75,-99.99,,,-99.99,137.899994,,2013-01-01 23:22:00,
2013-01-01 16:32:00,9.0,3.0,30.33,SSW,206,6.0,7.0,75,-99.99,,,-99.99,109.400002,,2013-01-01 23:32:00,
2013-01-01 16:42:00,9.0,4.0,30.34,SSW,202,7.0,7.0,80,-99.99,,,-99.99,80.199997,,2013-01-01 23:42:00,
2013-01-01 16:52:00,8.0,3.0,30.34,SSW,203,6.0,6.0,80,-99.99,,,-99.99,54.000000,,2013-01-01 23:52:00,
2013-01-01 17:02:00,6.0,1.0,30.34,SSW,206,6.0,6.0,79,-99.99,,,-99.99,33.099998,,2013-01-02 00:02:00,
2013-01-01 17:12:00,6.0,1.0,30.35,SSW,202,6.0,6.0,82,-99.99,,,-99.99,15.500000,,2013-01-02 00:12:00,
2013-01-01 17:22:00,7.0,3.0,30.35,SSW,204,5.0,5.0,83,-99.99,,,-99.99,6.600000,,2013-01-02 00:22:00,
2013-01-01 17:32:00,7.0,3.0,30.36,South,171,3.0,4.0,82,-99.99,,,-99.99,2.600000,,2013-01-02 00:32:00,
2013-01-01 17:42:00,7.0,3.0,30.35,SE,132,4.0,4.0,81,-99.99,,,-99.99,0.800000,,2013-01-02 00:42:00,
2013-01-01 17:52:00,7.0,2.0,30.36,ESE,104,1.0,2.0,82,-99.99,,,-99.99,0.100000,,2013-01-02 00:52:00,
2013-01-01 18:02:00,8.0,3.0,30.36,ESE,106,1.0,2.0,81,-99.99,,,-99.99,-0.100000,,2013-01-02 01:02:00,
2013-01-01 18:11:00,4.0,0.0,30.36,South,174,2.0,2.0,80,-99.99,,,-99.99,-0.100000,,2013-01-02 01:11:00,
2013-01-01 18:22:00,2.0,-3.0,30.36,South,171,3.0,3.0,81,-99.99,,,-99.99,-0.200000,,2013-01-02 01:22:00,
2013-01-01 18:32:00,3.0,-1.0,30.36,South,185,4.0,4.0,83,-99.99,,,-99.99,-0.100000,,2013-01-02 01:32:00,
2013-01-01 18:42:00,3.0,-2.0,30.37,SE,142,3.0,4.0,81,-99.99,,,-99.99,-0.100000,,2013-01-02 01:42:00,
2013-01-01 18:52:00,1.0,-4.0,30.37,SE,140,4.0,4.0,80,-99.99,,,-99.99,-0.100000,,2013-01-02 01:52:00,
2013-01-01 19:02:00,1.0,-3.0,30.38,East,97,3.0,4.0,81,-99.99,,,-99.99,-0.100000,,2013-01-02 02:02:00,
2013-01-01 19:11:00,-1.0,-6.0,30.38,East,88,4.0,5.0,78,-99.99,,,-99.99,-0.100000,,2013-01-02 02:11:00,
2013-01-01 19:22:00,-2.0,-6.0,30.38,East,93,6.0,7.0,79,-99.99,,,-99.99,-0.100000,,2013-01-02 02:22:00,
2013-01-01 19:32:00,-1.0,-5.0,30.37,East,94,6.0,7.0,80,-99.99,,,-99.99,-0.100000,,2013-01-02 02:32:00,
2013-01-01 19:42:00,-1.0,-5.0,30.37,East,94,4.0,6.0,79,-99.99,,,-99.99,-0.100000,,2013-01-02 02:42:00,
2013-01-01 19:52:00,-1.0,-6.0,30.37,East,97,5.0,6.0,79,-99.99,,,-99.99,-0.100000,,2013-01-02 02:52:00,
2013-01-01 20:02:00,-2.0,-7.0,30.38,East,93,4.0,6.0,78,-99.99,,,-99.99,-0.100000,,2013-01-02 03:02:00,
2013-01-01 20:11:00,-1.0,-6.0,30.38,East,87,5.0,7.0,79,-99.99,,,-99.99,-0.100000,,2013-01-02 03:11:00,
2013-01-01 20:22:00,-3.0,-8.0,30.38,East,98,5.0,6.0,77,-99.99,,,-99.99,-0.100000,,2013-01-02 03:22:00,
2013-01-01 20:32:00,-3.0,-8.0,30.38,ESE,105,4.0,5.0,78,-99.99,,,-99.99,-0.100000,,2013-01-02 03:32:00,
2013-01-01 20:42:00,-3.0,-8.0,30.38,SE,139,4.0,4.0,78,-99.99,,,-99.99,-0.100000,,2013-01-02 03:42:00,
2013-01-01 20:52:00,-3.0,-7.0,30.37,SSW,203,4.0,5.0,79,-99.99,,,-99.99,-0.100000,,2013-01-02 03:52:00,
2013-01-01 21:02:00,-4.0,-9.0,30.37,South,170,3.0,4.0,78,-99.99,,,-99.99,-0.100000,,2013-01-02 04:02:00,
2013-01-01 21:11:00,-4.0,-9.0,30.37,SE,128,4.0,5.0,77,-99.99,,,-99.99,-0.100000,,2013-01-02 04:11:00,
2013-01-01 21:22:00,-5.0,-10.0,30.38,SE,125,3.0,4.0,77,-99.99,,,-99.99,-0.100000,,2013-01-02 04:22:00,
2013-01-01 21:32:00,-5.0,-10.0,30.38,ESE,118,3.0,4.0,77,-99.99,,,-99.99,0.000000,,2013-01-02 04:32:00,
2013-01-01 21:42:00,-5.0,-10.0,30.38,ESE,102,3.0,4.0,77,-99.99,,,-99.99,0.000000,,2013-01-02 04:42:00,
2013-01-01 21:52:00,-5.0,-10.0,30.38,East,92,3.0,3.0,77,-99.99,,,-99.99,-0.100000,,2013-01-02 04:52:00,
2013-01-01 22:02:00,-6.0,-11.0,30.38,East,87,4.0,5.0,76,-99.99,,,-99.99,-0.100000,,2013-01-02 05:02:00,
2013-01-01 22:12:00,-6.0,-11.0,30.39,East,85,4.0,5.0,76,-99.99,,,-99.99,0.000000,,2013-01-02 05:12:00,
2013-01-01 22:22:00,-6.0,-11.0,30.39,East,85,5.0,8.0,77,-99.99,,,-99.99,-0.100000,,2013-01-02 05:22:00,
2013-01-01 22:32:00,-5.0,-10.0,30.40,East,92,5.0,6.0,77,-99.99,,,-99.99,0.000000,,2013-01-02 05:32:00,
2013-01-01 22:42:00,-4.0,-9.0,30.40,East,93,5.0,7.0,78,-99.99,,,-99.99,0.000000,,2013-01-02 05:42:00,
2013-01-01 22:52:00,-4.0,-9.0,30.40,East,96,6.0,8.0,78,-99.99,,,-99.99,-0.100000,,2013-01-02 05:52:00,
2013-01-01 23:02:00,-4.0,-9.0,30.40,East,99,6.0,7.0,77,-99.99,,,-99.99,-0.100000,,2013-01-02 06:02:00,
2013-01-01 23:11:00,-5.0,-10.0,30.40,ESE,105,5.0,6.0,77,-99.99,,,-99.99,0.000000,,2013-01-02 06:11:00,
2013-01-01 23:22:00,-5.0,-11.0,30.40,ESE,105,5.0,5.0,76,-99.99,,,-99.99,0.000000,,2013-01-02 06:22:00,
2013-01-01 23:32:00,-6.0,-12.0,30.40,East,94,4.0,6.0,76,-99.99,,,-99.99,0.000000,,2013-01-02 06:32:00,
2013-01-01 23:42:00,-7.0,-12.0,30.41,East,79,4.0,5.0,76,-99.99,,,-99.99,0.000000,,2013-01-02 06:42:00,
2013-01-01 23:52:00,-7.0,-12.0,30.41,East,86,5.0,6.0,76,-99.99,,,-99.99,-0.100000,,2013-01-02 06:52:00,